ETD551 OMAA-OERK

Flight info

Callsign ETD551
Flight time N/A
Altitude 32000
Route ORNEL DCT ELUDA DCT UKRAG DCT RIGIL DCT PEKEM DCT KATIT DCT BOPEK DCT KUTNA/N0450F280 M440 ITULU DCT OEHR DCT SITER DCT PSA DCT AKJ DCT RESAL
Aircraft A321/M-SDE3FGHIRWY/LB1

Departure

Time N/A
Airport Zayed International Airport (OMAA)

Arrival

Time 2026-04-27 15:27
Airport King Khalid International Airport (OERK)
Time Latitude Longitude Altitude Speed Heading
2026-04-27 15:22 25.14313 46.57565 5084 ft 257 kts 139°
2026-04-27 15:22 25.12835 46.58419 4999 ft 234 kts 175°
2026-04-27 15:23 25.11235 46.58479 5035 ft 225 kts 174°
2026-04-27 15:23 25.09832 46.59134 4806 ft 223 kts 143°
2026-04-27 15:23 25.08648 46.60153 4561 ft 207 kts 149°
2026-04-27 15:23 25.07446 46.60938 4287 ft 190 kts 153°
2026-04-27 15:24 25.06335 46.61637 4055 ft 176 kts 152°
2026-04-27 15:24 25.05307 46.62286 3834 ft 167 kts 153°
2026-04-27 15:24 25.04323 46.62909 3649 ft 162 kts 152°
2026-04-27 15:24 25.03368 46.63514 3450 ft 156 kts 152°
2026-04-27 15:25 25.02432 46.64107 3264 ft 155 kts 153°
2026-04-27 15:25 25.01501 46.64686 3084 ft 153 kts 152°
2026-04-27 15:25 25.00567 46.65265 2878 ft 154 kts 147°
2026-04-27 15:25 24.99643 46.65864 2728 ft 156 kts 150°
2026-04-27 15:26 24.98703 46.66463 2448 ft 154 kts 148°
2026-04-27 15:26 24.97774 46.67062 2222 ft 154 kts 152°
2026-04-27 15:26 24.96850 46.67637 2039 ft 149 kts 153°
2026-04-27 15:26 24.96149 46.68074 2032 ft 120 kts 148°
2026-04-27 15:27 24.95577 46.68447 2031 ft 71 kts 149°
2026-04-27 15:27 24.95199 46.68689 2032 ft 57 kts 150°
2026-04-27 15:27 24.95005 46.68872 2034 ft 27 kts 128°
2026-04-27 15:27 24.94964 46.69038 2037 ft 21 kts 75°
2026-04-27 15:28 24.95021 46.69172 2032 ft 19 kts 63°
2026-04-27 15:28 24.95091 46.69290 2037 ft 18 kts 69°
2026-04-27 15:28 24.95148 46.69414 2037 ft 18 kts 56°
2026-04-27 15:28 24.95220 46.69526 2033 ft 18 kts 34°
2026-04-27 15:29 24.95336 46.69572 2039 ft 18 kts 15°
2026-04-27 15:29 24.95450 46.69560 2033 ft 17 kts 333°
2026-04-27 15:29 24.95554 46.69496 2034 ft 17 kts 331°
2026-04-27 15:29 24.95660 46.69432 2031 ft 18 kts 329°
2026-04-27 15:30 24.95709 46.69315 2029 ft 17 kts 283°
2026-04-27 15:30 24.95724 46.69185 2029 ft 17 kts 249°
2026-04-27 15:30 24.95670 46.69073 2034 ft 16 kts 244°
2026-04-27 15:30 24.95614 46.68967 2039 ft 16 kts 239°
2026-04-27 15:31 24.95556 46.68857 2035 ft 17 kts 240°
2026-04-27 15:31 24.95496 46.68743 2036 ft 17 kts 241°
2026-04-27 15:31 24.95492 46.68614 2036 ft 17 kts 287°
2026-04-27 15:31 24.95496 46.68606 2036 ft 0 kts 293°